Date,TemperatureHighF,TemperatureAvgF,TemperatureLowF,DewpointHighF,DewpointAvgF,DewpointLowF,HumidityHigh,HumidityAvg,HumidityLow,PressureMaxIn,PressureMinIn,WindSpeedMaxMPH,WindSpeedAvgMPH,GustSpeedMaxMPH,PrecipitationSumIn
2013-1-1,42,35,30,33,30,28,94,84,69,30.45,30.30,5,0,6,0.01
2013-1-2,47,37,32,33,28,22,88,69,42,30.30,30.14,4,0,8,0.00
2013-1-3,46,37,30,36,28,20,96,72,40,30.14,30.03,7,1,8,0.24
2013-1-4,50,44,38,43,41,37,97,88,74,30.24,30.11,8,2,13,0.02
2013-1-5,45,44,42,40,36,32,93,75,61,30.14,30.05,7,2,10,0.08
2013-1-6,45,43,41,40,39,37,92,84,74,30.12,29.93,7,4,11,0.01
2013-1-7,51,47,41,47,43,39,93,86,78,30.09,29.73,13,6,25,0.04
2013-1-8,52,47,42,49,44,39,97,90,80,30.09,29.68,14,6,27,0.57
2013-1-9,50,41,37,48,39,34,95,91,78,29.89,29.61,11,3,19,0.89
2013-1-10,38,36,34,35,32,24,92,86,69,30.06,29.89,4,1,10,0.03
2013-1-11,38,32,29,30,26,20,94,76,61,30.27,30.06,3,0,4,0.00
2013-1-12,37,30,26,28,25,22,95,81,59,30.39,30.27,5,0,7,0.01
2013-1-13,37,31,26,29,26,24,95,83,61,30.44,30.39,1,0,3,0.00
2013-1-14,38,35,33,32,29,26,85,78,68,30.51,30.42,2,0,5,0.00
2013-1-15,43,37,33,34,31,29,88,78,63,30.64,30.51,5,1,9,0.00
2013-1-16,42,35,29,34,31,28,97,85,67,30.63,30.46,5,1,10,0.00
2013-1-17,38,34,29,36,33,28,98,94,89,30.47,30.24,1,0,3,0.01
2013-1-18,37,34,32,37,34,32,100,99,97,30.29,30.20,3,0,4,0.00
2013-1-19,36,34,32,35,34,32,100,98,93,30.33,30.28,2,0,5,0.00
2013-1-20,42,36,32,37,35,32,100,95,81,30.34,30.21,5,0,8,0.00
2013-1-21,38,34,32,36,34,31,100,97,91,30.22,30.08,2,0,4,0.00
2013-1-22,40,36,31,37,34,31,100,93,83,30.09,29.85,2,0,3,0.00
2013-1-23,43,41,39,41,37,31,96,85,68,30.07,29.79,6,2,14,0.26
2013-1-24,46,43,41,42,38,34,97,85,66,30.15,29.99,6,2,12,0.12
2013-1-25,52,46,42,45,42,37,99,86,68,30.00,29.87,8,2,13,0.04
2013-1-26,44,42,41,40,39,37,95,87,80,29.97,29.82,8,4,17,0.24
2013-1-27,42,41,40,39,38,36,93,87,83,29.99,29.93,9,3,17,0.03
2013-1-28,42,41,39,41,39,37,96,93,89,30.03,29.95,4,1,7,0.25
2013-1-29,47,45,42,46,43,41,97,94,88,30.27,30.03,7,2,16,0.35
2013-1-30,48,47,44,48,46,43,100,99,97,30.32,30.26,5,1,7,0.15
2013-1-31,49,47,46,47,45,43,100,94,81,30.34,30.24,10,2,14,0.09
2013-2-1,51,46,42,46,44,40,98,93,77,30.35,30.27,5,1,7,0.00
2013-2-2,43,41,39,42,39,38,99,95,86,30.33,30.20,3,1,6,0.00
2013-2-3,48,44,39,44,42,39,99,91,79,30.24,30.15,6,2,11,0.07
2013-2-4,51,47,44,42,41,40,92,82,68,30.15,29.83,6,2,10,0.01
2013-2-5,50,46,44,42,41,40,92,83,69,29.87,29.78,10,5,18,0.09
2013-2-6,50,46,44,43,40,37,91,82,65,29.99,29.73,10,4,17,0.12
2013-2-7,50,44,39,40,37,33,91,75,55,30.13,29.74,11,4,24,0.07
2013-2-8,45,42,38,38,36,34,95,83,68,30.24,30.13,2,0,6,0.00
2013-2-9,45,42,40,41,39,35,96,88,70,30.28,30.20,1,0,3,0.01
2013-2-10,46,41,34,41,38,33,99,88,63,30.32,30.26,6,1,7,0.01
2013-2-11,47,44,41,41,39,37,93,84,69,30.30,30.27,4,1,8,0.01
2013-2-12,50,47,44,45,44,41,96,89,81,30.30,30.22,9,3,16,0.02
2013-2-13,48,46,45,45,42,40,95,86,76,30.44,30.25,6,1,10,0.02
2013-2-14,48,45,43,45,43,40,96,90,82,30.50,30.43,4,1,11,0.05
2013-2-15,53,46,42,44,42,40,98,89,68,30.49,30.12,7,2,12,0.00
2013-2-16,54,45,41,44,41,37,97,87,57,30.14,30.03,9,3,13,0.12
2013-2-17,46,42,40,39,36,34,93,81,63,30.19,30.06,4,1,7,0.03
2013-2-18,45,42,40,38,36,34,93,79,66,30.05,29.71,6,1,11,0.00
2013-2-19,49,43,38,38,36,32,92,78,53,29.95,29.68,8,2,13,0.00
2013-2-20,44,41,38,40,37,34,95,88,73,29.98,29.94,7,1,13,0.11
2013-2-21,44,42,40,40,38,36,96,86,78,30.01,29.94,13,5,17,0.05
2013-2-22,47,42,39,41,38,32,91,83,72,29.99,29.63,15,8,29,0.11
2013-2-23,50,43,39,38,35,34,85,75,56,30.31,29.84,6,3,12,0.00
2013-2-24,47,45,41,36,35,32,81,69,57,30.32,29.90,12,6,19,0.00
2013-2-25,54,44,40,39,35,27,90,71,37,30.25,29.82,13,6,26,0.10
2013-2-26,47,43,39,36,34,30,85,69,53,30.29,30.14,8,4,19,0.01
2013-2-27,48,44,41,44,40,36,96,86,69,30.25,30.15,8,1,12,0.18
2013-2-28,52,47,42,50,46,42,98,95,91,30.26,30.13,9,3,14,0.22
2013-3-1,57,53,50,51,49,48,98,87,75,30.30,30.22,11,6,20,0.12
2013-3-2,56,50,38,49,44,36,95,82,68,30.22,30.01,9,4,19,0.16
2013-3-3,50,42,36,37,34,29,95,76,44,30.25,30.15,7,1,10,0.01
2013-3-4,53,42,32,37,30,23,91,65,34,30.25,29.87,6,1,10,0.01
2013-3-5,49,44,40,40,34,24,89,69,49,29.87,29.67,4,1,7,0.00
2013-3-6,44,42,40,41,40,38,96,91,82,29.83,29.52,6,2,10,0.58
2013-3-7,52,45,41,42,40,37,97,85,60,30.03,29.84,5,1,11,0.19
2013-3-8,50,43,37,40,37,35,97,81,59,30.18,30.02,8,2,13,0.00
2013-3-9,55,44,35,42,37,34,100,80,49,30.43,30.18,4,1,6,0.00
2013-3-10,47,43,40,42,39,36,92,84,64,30.44,30.37,2,0,10,0.01
2013-3-11,52,47,42,46,42,39,96,84,65,30.39,30.11,6,1,13,0.02
2013-3-12,55,52,48,51,48,45,97,88,71,30.11,30.00,11,7,27,0.06
2013-3-13,52,51,50,50,48,47,94,91,87,30.15,30.03,12,5,19,0.13
2013-3-14,53,51,48,48,46,43,97,84,70,30.09,29.97,8,3,17,0.01
2013-3-15,58,52,48,48,47,45,97,84,69,30.15,30.08,11,5,19,0.01
2013-3-16,50,47,40,45,40,33,88,79,62,30.08,29.83,13,6,22,0.01
2013-3-17,50,42,39,37,34,31,89,75,52,30.14,29.92,9,3,17,0.03
2013-3-18,52,44,40,40,35,30,88,70,43,30.19,30.05,14,4,21,0.00
2013-3-19,55,43,36,42,36,29,95,77,38,30.17,29.54,10,2,12,0.33
2013-3-20,51,46,40,49,40,31,97,80,62,29.95,29.32,16,9,28,0.48
2013-3-21,48,40,36,37,34,32,92,77,56,30.16,29.96,7,3,20,0.04
2013-3-22,47,40,35,34,30,24,94,72,41,30.32,30.16,6,1,9,0.03
2013-3-23,51,41,35,32,28,21,85,63,31,30.34,30.24,3,1,8,0.00
2013-3-24,54,43,34,35,30,26,85,64,36,30.25,30.07,3,0,5,0.00
2013-3-25,60,49,38,37,29,25,67,48,27,30.07,29.87,6,1,9,0.00
2013-3-26,60,51,45,40,37,32,76,60,40,29.96,29.90,4,1,8,0.00
2013-3-27,57,49,46,47,42,35,93,77,56,29.94,29.88,2,0,4,0.04
2013-3-28,62,52,45,48,45,43,97,80,50,30.08,29.93,4,0,7,0.02
2013-3-29,63,53,46,46,44,40,94,74,44,30.18,30.09,6,1,11,0.00
2013-3-30,62,52,43,47,44,42,99,77,56,30.20,30.02,9,3,12,0.00
2013-3-31,65,56,46,45,42,40,82,61,44,30.01,29.85,8,2,12,0.00
2013-4-1,61,53,48,48,46,42,92,78,59,30.10,29.90,8,3,13,0.00
2013-4-2,57,52,49,46,44,43,84,76,66,30.14,30.09,8,2,12,0.00
2013-4-3,62,53,46,46,44,42,94,75,49,30.14,29.90,4,1,7,0.00
2013-4-4,56,52,49,54,49,44,98,89,77,29.89,29.58,8,2,13,0.37
2013-4-5,56,52,48,50,48,46,97,87,73,29.81,29.67,12,6,18,0.64
2013-4-6,52,48,45,48,44,40,97,85,73,29.87,29.64,12,6,24,0.43
2013-4-7,45,43,40,43,41,38,95,92,89,29.83,29.45,6,2,11,0.75
2013-4-8,59,48,42,44,42,40,95,80,54,30.21,29.84,4,1,8,0.04
2013-4-9,54,49,45,42,40,37,85,71,54,30.30,30.13,7,3,12,0.00
2013-4-10,59,52,48,50,45,41,96,76,59,30.20,29.89,12,4,19,0.23
2013-4-11,53,48,44,44,39,33,94,72,48,30.25,30.14,7,2,11,0.08
2013-4-12,46,44,41,44,39,36,96,83,68,30.14,29.61,11,4,21,0.16
2013-4-13,49,42,38,42,38,33,96,86,69,29.95,29.71,11,3,18,0.54
2013-4-14,54,45,39,41,37,27,96,75,40,29.96,29.86,7,2,10,0.11
2013-4-15,54,46,40,41,38,34,95,76,48,30.13,29.89,8,2,16,0.00
2013-4-16,56,47,38,42,37,30,97,72,40,30.34,30.13,8,1,12,0.00
2013-4-17,60,49,41,42,37,31,84,66,35,30.40,30.33,7,2,13,0.00
2013-4-18,51,47,44,48,42,37,94,82,70,30.40,30.15,8,4,16,0.13
2013-4-19,54,51,48,52,49,47,98,94,88,30.14,30.00,12,3,19,0.44
2013-4-20,56,50,46,50,45,43,96,86,64,30.22,30.14,6,2,11,0.17
2013-4-21,54,47,43,45,41,36,95,80,57,30.31,30.17,8,2,12,0.03
2013-4-22,58,49,39,40,32,17,94,59,21,30.47,30.32,9,3,18,0.00
2013-4-23,61,51,39,38,33,21,90,54,22,30.37,30.18,8,2,14,0.00
2013-4-24,68,56,42,42,36,29,86,51,24,30.26,30.00,9,2,12,0.00
2013-4-25,73,58,45,47,38,32,83,49,25,30.08,29.98,5,1,7,0.00
2013-4-26,67,55,46,49,46,42,96,73,49,30.20,30.08,6,1,10,0.00
2013-4-27,56,54,51,47,44,38,85,70,55,30.16,30.09,12,4,21,0.00
2013-4-28,58,51,47,47,44,39,91,77,53,30.16,29.91,10,3,17,0.00
2013-4-29,57,49,44,47,39,31,96,71,38,30.10,29.85,6,2,13,0.15
2013-4-30,55,46,38,38,34,29,88,63,39,30.39,30.11,5,2,9,0.04
2013-5-1,61,50,38,39,34,25,89,57,26,30.52,30.39,8,2,13,0.00
2013-5-2,64,54,45,42,38,33,76,56,38,30.49,30.31,8,3,18,0.00
2013-5-3,68,57,46,48,44,39,80,62,43,30.33,30.17,9,2,13,0.00
2013-5-4,73,62,52,48,43,34,76,52,27,30.17,29.93,10,3,15,0.00
2013-5-5,78,67,53,50,43,36,72,45,22,29.93,29.70,8,2,17,0.00
2013-5-6,84,68,54,51,45,40,75,48,23,29.79,29.68,7,1,11,0.00
2013-5-7,73,60,51,54,50,48,90,73,48,29.94,29.76,6,2,13,0.00
2013-5-8,66,56,51,51,49,48,88,77,56,30.09,29.95,6,2,10,0.00
2013-5-9,69,56,50,53,50,47,97,81,46,30.17,30.06,5,1,8,0.00
2013-5-10,78,61,48,54,50,46,96,70,37,30.15,30.04,4,1,8,0.00
2013-5-11,80,64,54,52,48,43,84,59,31,30.11,29.92,6,2,13,0.00
2013-5-12,70,62,58,58,54,52,93,76,58,30.04,29.96,8,4,14,0.08
2013-5-13,63,56,49,54,49,40,92,78,57,30.13,29.88,12,5,25,0.35
2013-5-14,66,55,48,44,41,36,82,61,35,30.17,30.05,5,2,9,0.01
2013-5-15,66,55,48,51,46,35,92,73,37,30.07,29.96,6,2,11,0.00
2013-5-16,68,59,54,52,50,45,93,73,45,29.96,29.81,7,2,12,0.00
2013-5-17,63,57,53,50,48,43,87,72,53,30.00,29.90,6,4,14,0.00
2013-5-18,62,56,52,48,46,42,85,69,48,30.21,30.00,7,2,12,0.00
2013-5-19,63,57,51,49,47,45,83,72,53,30.35,30.22,6,2,10,0.00
2013-5-20,69,56,47,49,46,43,94,74,42,30.30,29.85,8,1,16,0.00
2013-5-21,56,50,46,48,45,43,95,84,63,29.85,29.73,7,2,13,0.39
2013-5-22,55,48,45,46,44,43,95,86,68,29.88,29.80,7,2,11,0.05
2013-5-23,59,49,45,47,44,41,94,81,56,29.96,29.88,8,2,16,0.07
2013-5-24,64,54,47,48,45,39,94,74,45,30.00,29.92,7,2,11,0.01
2013-5-25,64,56,51,49,46,42,87,71,45,29.99,29.92,4,2,9,0.01
2013-5-26,64,55,50,52,50,47,95,82,64,29.93,29.89,7,2,13,0.08
2013-5-27,58,56,52,56,52,48,94,88,80,29.91,29.66,6,2,8,0.28
2013-5-28,62,56,52,53,48,46,90,77,62,29.83,29.72,7,3,17,0.04
2013-5-29,61,54,49,50,48,46,96,81,61,29.91,29.64,8,2,11,0.14
2013-5-30,61,55,50,47,46,44,83,72,54,30.18,29.91,11,5,18,0.00
2013-5-31,67,58,51,48,45,39,87,65,38,30.29,30.19,5,1,8,0.00
2013-6-1,72,60,52,49,46,42,82,61,35,30.19,30.00,9,2,13,0.00
2013-6-2,69,61,53,51,49,44,87,65,46,30.04,29.98,7,2,10,0.01
2013-6-3,72,60,51,53,50,49,94,73,47,30.07,30.00,6,2,8,0.00
2013-6-4,75,64,52,53,49,42,91,62,38,30.08,29.96,8,3,12,0.00
2013-6-5,74,64,55,56,52,46,81,64,49,30.03,29.97,7,2,11,0.00
2013-6-6,78,65,53,52,48,39,92,59,28,30.00,29.94,7,2,11,0.00
2013-6-7,67,61,56,54,49,42,77,65,46,30.09,29.96,7,2,13,0.00
2013-6-8,67,59,54,50,48,46,76,66,51,30.13,30.04,6,2,11,0.00
2013-6-9,65,57,52,48,46,44,83,68,48,30.07,29.97,7,2,11,0.00
2013-6-10,70,58,48,49,46,42,85,65,42,29.98,29.82,6,2,10,0.00
2013-6-11,65,57,52,52,46,44,85,68,49,30.04,29.88,10,4,19,0.15
2013-6-12,68,58,52,50,46,42,82,66,42,30.09,30.05,8,4,16,0.00
2013-6-13,67,59,53,51,48,45,84,68,47,30.16,30.08,6,2,8,0.00
2013-6-14,67,59,54,50,48,46,83,67,49,30.18,30.00,5,2,17,0.00
2013-6-15,71,61,51,52,50,46,93,70,43,30.00,29.86,9,3,12,0.00
2013-6-16,75,64,55,55,52,50,89,68,49,30.03,29.93,8,2,11,0.00
2013-6-17,76,65,57,55,50,44,86,62,32,30.03,29.83,8,2,11,0.02
2013-6-18,74,63,56,54,48,38,89,61,29,29.92,29.81,7,2,12,0.00
2013-6-19,68,60,55,53,50,47,85,69,50,29.95,29.86,6,2,9,0.00
2013-6-20,60,56,53,54,51,48,97,83,70,30.05,29.90,5,2,11,0.31
2013-6-21,70,60,53,55,51,47,98,75,46,30.11,30.05,3,1,8,0.02
2013-6-22,79,65,52,54,51,45,96,64,33,30.07,29.79,4,1,8,0.00
2013-6-23,71,64,59,62,56,51,96,76,62,29.79,29.54,2,0,5,0.20
2013-6-24,69,62,56,60,55,51,97,79,57,29.65,29.52,9,3,14,0.06
2013-6-25,75,62,57,59,56,51,96,81,46,29.80,29.62,8,2,16,0.50
2013-6-26,71,63,58,61,57,54,95,80,60,30.02,29.79,5,2,11,0.06
2013-6-27,71,65,60,62,60,54,97,84,71,30.14,29.99,3,0,6,0.11
2013-6-28,89,71,59,62,60,54,96,71,34,30.14,29.98,6,2,10,0.00
2013-6-29,85,72,63,62,60,58,91,68,44,30.04,29.93,6,1,8,0.00
2013-6-30,89,73,59,63,59,54,85,64,38,29.95,29.78,9,2,12,0.00
2013-7-1,86,74,63,63,60,57,85,63,44,29.95,29.84,6,1,8,0.00
2013-7-2,82,70,60,59,55,48,89,62,35,30.05,29.96,7,2,14,0.00
2013-7-3,74,66,60,53,49,42,71,55,32,30.09,29.98,8,2,13,0.00
2013-7-4,72,63,58,54,52,49,83,68,48,30.08,29.97,5,1,8,0.00
2013-7-5,75,65,56,55,53,52,91,69,48,29.98,29.89,6,1,11,0.00
2013-7-6,76,65,56,56,54,44,95,68,32,29.93,29.80,9,2,14,0.00
2013-7-7,76,65,57,59,56,52,93,74,52,29.90,29.82,5,1,8,0.00
2013-7-8,79,65,56,58,54,52,89,70,45,30.04,29.89,4,2,9,0.00
2013-7-9,80,68,56,56,54,51,95,65,40,30.06,29.93,8,3,11,0.00
2013-7-10,71,62,57,55,53,49,88,72,56,30.02,29.89,5,2,11,0.00
2013-7-11,70,60,56,50,48,46,75,64,45,30.03,29.93,6,2,11,0.00
2013-7-12,67,60,54,52,49,46,80,69,57,30.05,29.96,3,0,6,0.00
2013-7-13,74,63,51,51,47,41,84,59,33,30.15,30.05,9,2,17,0.00
2013-7-14,81,66,54,53,47,41,85,55,27,30.08,29.93,7,2,12,0.00
2013-7-15,77,67,55,53,48,41,81,53,30,29.99,29.83,10,3,17,0.00
2013-7-16,81,72,60,57,49,45,64,45,33,29.84,29.73,9,2,13,0.00
2013-7-17,72,65,60,56,55,54,82,69,55,30.13,29.81,7,3,12,0.03
2013-7-18,77,65,58,56,55,53,85,70,47,30.17,30.06,6,2,10,0.00
2013-7-19,78,65,55,58,56,53,93,74,50,30.11,29.98,7,2,12,0.00
2013-7-20,75,62,55,59,56,53,96,80,56,30.04,29.90,5,1,8,0.00
2013-7-21,77,63,55,59,56,54,97,79,52,29.93,29.84,3,1,7,0.00
2013-7-22,79,65,56,58,56,54,97,74,45,30.01,29.88,4,1,9,0.00
2013-7-23,81,66,54,58,53,43,98,67,27,30.01,29.91,8,3,14,0.00
2013-7-24,82,68,56,56,51,42,91,59,27,30.00,29.92,7,2,11,0.00
2013-7-25,83,67,53,56,52,47,94,63,33,30.05,29.97,6,2,10,0.00
2013-7-26,82,68,55,54,50,42,89,56,27,30.10,30.00,8,1,13,0.00
2013-7-27,77,65,56,53,51,45,85,62,33,30.11,29.93,5,1,8,0.00
2013-7-28,67,60,54,54,52,51,92,77,62,29.98,29.90,6,3,12,0.00
2013-7-29,76,64,56,56,53,51,85,68,45,29.96,29.89,3,1,7,0.00
2013-7-30,77,64,55,57,54,52,92,72,46,30.08,29.95,4,1,7,0.00
2013-7-31,70,62,56,60,56,53,98,83,66,30.07,29.93,3,0,6,0.00
2013-8-1,67,61,55,56,54,53,92,79,64,30.01,29.98,7,3,12,0.00
2013-8-2,61,60,58,58,56,54,96,88,79,30.07,30.00,5,2,10,0.12
2013-8-3,73,64,58,58,57,54,98,80,56,30.08,29.99,6,2,9,0.00
2013-8-4,78,66,56,59,57,54,96,73,49,30.01,29.88,8,3,16,0.00
2013-8-5,83,69,57,59,57,52,93,68,34,29.96,29.86,5,1,8,0.00
2013-8-6,84,68,54,57,54,48,93,65,30,29.96,29.84,5,1,7,0.00
2013-8-7,84,68,56,57,54,47,93,66,30,29.96,29.88,7,1,9,0.00
2013-8-8,80,67,58,58,56,53,92,69,45,29.98,29.87,5,1,10,0.00
2013-8-9,80,68,56,58,56,52,94,68,39,29.90,29.77,7,2,10,0.00
2013-8-10,77,66,58,62,59,57,95,79,57,29.95,29.83,5,1,12,0.11
2013-8-11,76,65,57,58,54,52,86,70,44,30.01,29.92,6,2,10,0.00
2013-8-12,78,66,58,56,54,52,87,69,42,30.02,29.94,7,2,13,0.00
2013-8-13,81,67,58,56,54,50,88,66,34,30.05,29.87,7,1,10,0.00
2013-8-14,79,67,57,62,56,53,88,71,42,29.90,29.85,5,1,12,0.01
2013-8-15,69,66,61,64,62,60,96,88,78,29.93,29.86,4,1,7,0.02
2013-8-16,84,70,60,63,58,45,99,72,27,29.94,29.87,4,1,9,0.01
2013-8-17,77,68,62,60,57,54,81,67,53,30.01,29.94,6,3,12,0.00
2013-8-18,80,66,59,58,55,51,87,68,49,30.07,30.01,7,2,13,0.00
2013-8-19,78,67,60,57,54,50,81,64,47,30.05,30.00,9,2,17,0.00
2013-8-20,73,65,59,54,50,47,77,60,42,30.11,30.01,9,3,12,0.00
2013-8-21,76,66,55,54,51,48,81,60,45,30.03,29.87,9,3,15,0.00
2013-8-22,79,70,56,56,52,50,82,57,37,29.88,29.73,8,2,13,0.00
2013-8-23,74,67,61,57,55,53,84,68,52,29.83,29.76,9,4,17,0.00
2013-8-24,74,65,60,56,55,51,82,70,44,29.86,29.79,6,2,12,0.00
2013-8-25,71,64,55,58,53,50,87,70,51,29.89,29.81,6,1,9,0.00
2013-8-26,75,66,60,58,55,49,85,70,41,29.90,29.79,7,1,13,0.04
2013-8-27,78,68,62,58,56,52,83,67,48,29.90,29.73,5,2,10,0.00
2013-8-28,79,69,59,65,59,55,98,75,48,29.83,29.77,4,1,7,0.17
2013-8-29,73,67,64,66,63,58,97,89,70,29.95,29.79,6,2,12,0.35
2013-8-30,79,68,62,62,56,50,89,68,38,30.09,29.96,6,3,11,0.00
2013-8-31,75,65,56,57,56,54,94,74,54,30.02,29.78,8,2,13,0.00
2013-9-1,81,68,58,59,57,55,91,71,45,29.83,29.73,4,1,8,0.00
2013-9-2,83,70,61,58,56,54,83,64,40,29.88,29.79,4,1,11,0.00
2013-9-3,73,65,61,62,60,57,97,85,62,29.97,29.87,4,1,7,0.14
2013-9-4,71,64,59,60,59,58,96,85,67,29.99,29.94,6,1,9,0.00
2013-9-5,66,62,59,61,58,57,98,89,75,29.99,29.87,6,1,10,0.16
2013-9-6,72,64,60,64,61,58,99,90,69,30.05,29.88,8,2,13,1.12
2013-9-7,72,64,60,60,59,57,92,82,60,30.05,29.96,6,1,10,0.00
2013-9-8,78,65,56,60,58,56,98,78,47,30.05,29.96,4,1,7,0.00
2013-9-9,75,63,56,60,58,56,100,84,56,30.02,29.92,7,2,11,0.00
2013-9-10,74,64,55,61,58,55,99,81,63,29.94,29.83,8,2,12,0.00
2013-9-11,87,71,59,61,58,56,94,67,38,29.88,29.80,7,2,8,0.00
2013-9-12,78,66,59,61,59,57,98,81,53,29.94,29.84,4,0,7,0.00
2013-9-13,66,62,59,61,59,57,100,91,80,29.91,29.82,2,0,5,0.00
2013-9-14,67,62,59,60,58,57,95,88,75,29.83,29.68,4,2,7,0.00
2013-9-15,64,60,56,62,59,56,100,97,86,29.76,29.66,5,2,10,0.16
2013-9-16,68,62,58,60,57,53,92,85,69,29.87,29.75,7,3,13,0.03
2013-9-17,63,59,56,54,52,50,90,79,64,29.89,29.81,2,0,7,0.00
2013-9-18,70,60,54,54,52,48,94,74,48,30.01,29.89,5,1,10,0.00
2013-9-19,78,63,50,52,49,43,94,65,31,29.99,29.69,3,0,5,0.00
2013-9-20,74,64,58,57,52,46,91,66,46,29.70,29.52,7,2,15,0.09
2013-9-21,69,61,56,56,54,51,93,77,56,29.67,29.58,5,2,12,0.00
2013-9-22,61,58,55,55,52,48,92,82,63,29.67,29.51,9,5,21,0.23
2013-9-23,61,57,54,53,51,46,93,83,72,29.91,29.68,9,4,18,0.24
2013-9-24,63,55,50,51,49,44,94,80,54,29.90,29.77,6,2,11,0.02
2013-9-25,59,53,50,49,48,45,96,84,60,29.98,29.81,7,2,13,0.05
2013-9-26,62,54,47,50,48,46,98,81,59,30.07,29.98,3,1,8,0.00
2013-9-27,57,55,52,52,50,47,91,83,77,30.06,29.79,8,4,19,0.07
2013-9-28,61,56,53,58,54,49,98,92,84,29.79,29.28,13,5,17,1.16
2013-9-29,57,54,53,52,49,46,94,84,75,29.50,29.09,12,7,21,0.50
2013-9-30,58,53,50,50,47,43,91,81,69,29.86,29.37,11,6,20,0.10
2013-10-1,58,52,48,48,46,42,94,79,57,30.05,29.85,10,4,17,0.13
2013-10-2,55,51,49,48,47,46,95,87,74,30.12,30.00,7,2,11,0.29
2013-10-3,58,52,48,48,46,43,94,81,61,30.40,30.12,4,1,6,0.01
2013-10-4,64,52,45,50,46,42,98,81,48,30.42,30.29,3,0,6,0.00
2013-10-5,66,55,46,49,47,42,96,76,41,30.30,30.07,6,1,10,0.00
2013-10-6,72,59,48,52,48,41,100,72,35,30.07,29.81,7,2,10,0.02
2013-10-7,61,55,53,52,49,44,93,80,57,29.95,29.83,9,5,14,0.06
2013-10-8,57,51,46,49,45,41,90,81,56,30.02,29.90,8,1,16,0.08
2013-10-9,60,49,42,46,44,41,98,82,54,30.08,29.90,4,0,6,0.01
2013-10-10,59,52,48,50,47,44,92,82,62,30.01,29.88,3,0,7,0.01
2013-10-11,56,52,49,50,48,46,95,89,74,30.09,30.01,1,0,2,0.08
2013-10-12,55,51,47,50,47,45,96,88,72,30.16,30.01,7,1,11,0.04
2013-10-13,59,50,45,47,45,41,97,85,56,30.31,30.16,5,0,7,0.00
2013-10-14,59,49,41,47,44,41,100,86,58,30.37,30.30,5,1,9,0.00
2013-10-15,59,50,44,49,46,43,100,88,62,30.33,30.12,4,0,4,0.00
2013-10-16,56,51,47,48,47,46,97,88,74,30.15,30.09,3,0,6,0.00
2013-10-17,58,51,48,49,47,46,95,86,71,30.22,30.15,3,0,5,0.00
2013-10-18,53,48,44,50,46,43,100,95,84,30.19,30.09,6,1,7,0.01
2013-10-19,49,47,45,48,47,45,100,99,95,30.14,30.09,3,0,5,0.01
2013-10-20,50,48,46,48,47,46,100,96,90,30.15,30.09,2,0,5,0.00
2013-10-21,51,48,46,49,48,46,100,97,89,30.11,30.04,3,0,4,0.00
2013-10-22,53,48,46,49,48,46,100,98,86,30.07,29.98,6,1,6,0.00
2013-10-23,55,47,44,52,47,44,100,98,79,30.00,29.92,3,0,5,0.01
2013-10-24,48,47,44,48,47,44,100,100,100,30.07,29.97,3,0,3,0.01
2013-10-25,52,49,46,49,48,46,100,95,85,30.26,30.07,4,0,5,0.01
2013-10-26,54,50,46,48,46,44,100,85,74,30.28,30.14,3,0,6,0.00
2013-10-27,56,51,46,49,45,42,100,83,66,30.14,29.84,8,2,14,0.16
2013-10-28,56,52,47,45,36,31,91,56,40,29.89,29.82,12,4,22,0.00
2013-10-29,58,48,39,42,37,34,92,69,42,29.98,29.89,3,0,6,0.00
2013-10-30,56,49,42,47,41,36,89,73,61,30.06,29.97,7,2,15,0.02
2013-10-31,55,52,50,51,47,42,91,85,70,30.20,30.03,8,2,12,0.00
2013-11-1,60,55,52,51,49,46,94,80,62,30.21,29.78,2,0,8,0.00
2013-11-2,54,50,45,51,45,38,99,82,62,29.82,29.42,15,4,27,0.41
2013-11-3,54,45,42,42,40,37,92,81,56,30.05,29.82,5,1,8,0.01
2013-11-4,49,44,38,41,38,32,98,80,51,30.13,29.99,3,1,7,0.05
2013-11-5,51,47,44,48,45,40,100,92,86,30.20,29.95,5,1,12,0.01
2013-11-6,52,48,44,47,44,42,96,86,71,30.26,29.97,5,0,8,0.03
2013-11-7,51,49,48,48,47,44,97,90,77,29.97,29.66,12,6,22,0.67
2013-11-8,55,50,47,45,43,42,87,78,65,30.09,29.91,6,2,16,0.00
2013-11-9,51,46,41,45,43,40,97,88,72,30.09,30.01,2,0,3,0.06
2013-11-10,49,47,45,45,44,43,97,90,84,30.09,30.04,5,1,7,0.03
2013-11-11,59,49,45,47,44,43,93,83,61,30.10,29.94,5,1,6,0.00
2013-11-12,58,53,48,52,49,42,97,85,65,30.29,29.97,8,3,17,0.12
2013-11-13,55,53,49,50,48,46,91,84,76,30.37,30.25,10,2,18,0.00
2013-11-14,49,47,45,47,46,44,98,94,88,30.25,30.00,3,0,5,0.03
2013-11-15,49,46,43,47,43,39,97,89,81,30.00,29.26,15,4,19,0.12
2013-11-16,48,45,41,44,38,35,96,78,64,29.72,29.28,8,3,14,0.04
2013-11-17,52,48,44,46,43,37,89,84,77,29.84,29.72,12,6,17,0.00
2013-11-18,52,50,48,51,48,44,97,93,83,29.84,29.49,7,3,11,0.51
2013-11-19,53,44,38,51,37,21,95,77,45,30.02,29.49,10,2,21,0.16
2013-11-20,43,37,33,30,26,22,81,65,45,30.45,30.02,7,1,13,0.00
2013-11-21,42,36,30,28,26,23,84,69,50,30.61,30.45,5,1,8,0.00
2013-11-22,44,37,31,32,28,26,85,71,52,30.60,30.41,7,1,10,0.00
2013-11-23,50,40,34,38,32,26,85,74,53,30.39,30.14,5,1,7,0.00
2013-11-24,49,42,36,40,37,33,92,83,70,30.19,30.11,4,0,6,0.00
2013-11-25,54,42,37,41,39,36,100,88,55,30.26,30.19,2,0,3,0.00
2013-11-26,51,44,37,42,38,35,100,81,55,30.22,30.04,3,0,6,0.01
2013-11-27,56,47,42,44,40,35,89,77,64,30.03,29.90,4,1,6,0.00
2013-11-28,46,41,37,46,40,36,100,97,88,30.12,29.97,2,0,2,0.00
2013-11-29,47,45,41,46,43,40,100,92,84,30.26,30.12,3,1,7,0.00
2013-11-30,50,49,46,48,44,42,94,85,76,30.27,30.03,9,5,16,0.04
2013-12-1,54,51,43,51,47,38,98,86,78,30.03,29.68,15,6,21,0.01
2013-12-2,45,40,36,38,34,29,95,79,56,30.01,29.75,6,2,11,0.08
2013-12-3,38,35,31,29,24,19,81,65,47,30.26,30.01,9,3,17,0.00
2013-12-4,38,31,26,27,24,20,91,75,59,30.30,30.24,4,0,6,0.00
2013-12-5,33,29,26,25,20,11,91,68,48,30.27,30.14,2,0,5,0.00
2013-12-6,34,28,23,13,8,5,53,42,30,30.18,30.08,3,1,8,0.00
2013-12-7,30,24,20,12,5,-2,65,45,26,30.38,30.18,5,0,8,0.00
2013-12-8,33,27,21,19,15,9,71,61,46,30.52,30.37,2,0,4,0.00
2013-12-9,34,30,25,28,21,15,81,69,59,30.53,30.43,2,0,6,0.00
2013-12-10,39,36,33,34,31,26,86,81,75,30.44,30.36,2,0,7,0.00
2013-12-11,40,36,31,35,33,29,94,88,80,30.36,30.11,1,0,2,0.00
2013-12-12,42,39,34,41,36,32,100,90,70,30.11,29.99,6,2,11,0.11
2013-12-13,48,46,42,45,44,41,97,93,87,30.35,30.07,5,2,8,0.00
2013-12-14,49,47,45,44,43,41,90,85,81,30.38,30.26,8,3,12,0.00
2013-12-15,50,48,46,48,46,42,98,92,81,30.39,30.26,10,3,17,0.09
2013-12-16,49,45,40,46,43,40,100,94,79,30.44,30.22,2,0,4,0.00
2013-12-17,44,42,40,42,40,39,100,96,87,30.22,30.05,4,1,12,0.01
2013-12-18,44,42,38,42,36,30,96,81,60,30.10,29.97,6,1,10,0.05
2013-12-19,39,36,32,34,25,20,87,64,48,30.29,30.09,6,1,12,0.00
2013-12-20,44,37,32,44,34,24,100,91,65,30.15,29.65,12,3,24,0.14
2013-12-21,44,42,40,44,42,39,100,99,98,30.10,29.78,4,0,6,0.11
2013-12-22,49,47,44,49,47,44,100,100,93,30.23,30.10,11,2,19,0.15
2013-12-23,54,49,43,48,45,39,98,86,67,30.45,30.07,14,5,24,0.01
2013-12-24,47,41,37,40,38,35,98,88,71,30.56,30.45,4,0,6,0.00
2013-12-25,43,36,32,38,34,32,100,94,69,30.48,30.35,2,0,5,0.00
2013-12-26,44,38,35,40,37,35,100,96,80,30.36,30.15,3,0,4,0.00
2013-12-27,45,41,36,44,40,36,100,97,82,30.31,30.06,7,1,11,0.04
2013-12-28,47,43,38,44,42,37,100,96,82,30.47,30.31,2,0,3,0.00
2013-12-29,43,40,37,41,39,37,100,96,87,30.43,30.26,2,0,3,0.00
2013-12-30,44,42,39,42,40,39,100,94,85,30.26,30.07,6,0,10,0.01
2013-12-31,45,44,41,44,42,39,100,93,80,30.32,30.14,3,1,6,0.00
2014-1-1,44,42,39,43,40,39,100,96,87,30.35,30.19,2,0,3,0.01
2014-1-2,50,46,42,46,42,40,99,89,68,30.19,29.84,12,3,20,0.39